![]() |
EMODnet Physics ERDDAP
Easier access to scientific data |
log in|
Brought to you by EMODnet Physics |
| Dataset Title: | NDBC - Collection of dew point temperature (DEWT) TimeSeries - IN SITU MultiPointTimeSeriesObservation
|
| Institution: | NDBC (Dataset ID: TS_DEWT_NDBC) |
| Information: | Summary
| License
| FGDC
| ISO 19115
| Metadata
| Background
| Subset
| Data Access Form
| Make a graph
|
| Name | Last modified | Size | Description | |
|---|---|---|---|---|
| Parent Directory | - | - | ||
| PMAF1_TS_DEWT_012007.nc | 27-Oct-2024 18:01 | 429898 | ||
| PMAF1_TS_DEWT_012008.nc | 27-Oct-2024 18:01 | 429904 | ||
| PMAF1_TS_DEWT_012009.nc | 27-Oct-2024 18:01 | 429833 | ||
| PMAF1_TS_DEWT_012013.nc | 27-Oct-2024 18:01 | 429894 | ||
| PMAF1_TS_DEWT_012014.nc | 27-Oct-2024 18:01 | 429908 | ||
| PMAF1_TS_DEWT_012015.nc | 27-Oct-2024 18:01 | 429911 | ||
| PMAF1_TS_DEWT_012016.nc | 27-Oct-2024 18:01 | 429905 | ||
| PMAF1_TS_DEWT_012017.nc | 27-Oct-2024 18:01 | 429911 | ||
| PMAF1_TS_DEWT_012018.nc | 27-Oct-2024 18:01 | 429911 | ||
| PMAF1_TS_DEWT_012019.nc | 27-Oct-2024 18:01 | 429903 | ||
| PMAF1_TS_DEWT_012020.nc | 27-Oct-2024 18:01 | 429913 | ||
| PMAF1_TS_DEWT_012021.nc | 27-Oct-2024 18:01 | 429918 | ||
| PMAF1_TS_DEWT_012022.nc | 27-Oct-2024 18:01 | 429904 | ||
| PMAF1_TS_DEWT_012023.nc | 27-Oct-2024 18:02 | 1264989 | ||
| PMAF1_TS_DEWT_012024.nc | 27-Oct-2024 18:02 | 1262608 | ||
| PMAF1_TS_DEWT_022007.nc | 27-Oct-2024 18:02 | 1265557 | ||
| PMAF1_TS_DEWT_022008.nc | 27-Oct-2024 18:02 | 1262549 | ||
| PMAF1_TS_DEWT_022009.nc | 27-Oct-2024 18:02 | 1266944 | ||
| PMAF1_TS_DEWT_022010.nc | 27-Oct-2024 18:02 | 494074 | ||
| PMAF1_TS_DEWT_022013.nc | 27-Oct-2024 18:02 | 5827277 | ||
| PMAF1_TS_DEWT_022014.nc | 27-Oct-2024 18:02 | 427668 | ||
| PMAF1_TS_DEWT_022015.nc | 27-Oct-2024 18:02 | 429554 | ||
| PMAF1_TS_DEWT_022016.nc | 27-Oct-2024 18:02 | 429551 | ||
| PMAF1_TS_DEWT_022017.nc | 27-Oct-2024 18:02 | 429514 | ||
| PMAF1_TS_DEWT_022018.nc | 27-Oct-2024 18:02 | 429568 | ||
| PMAF1_TS_DEWT_022019.nc | 27-Oct-2024 18:03 | 426573 | ||
| PMAF1_TS_DEWT_022020.nc | 27-Oct-2024 18:03 | 429565 | ||
| PMAF1_TS_DEWT_022021.nc | 27-Oct-2024 18:03 | 429566 | ||
| PMAF1_TS_DEWT_022022.nc | 27-Oct-2024 18:03 | 429570 | ||
| PMAF1_TS_DEWT_022023.nc | 27-Oct-2024 18:03 | 429564 | ||
| PMAF1_TS_DEWT_022024.nc | 16-Sep-2024 16:51 | 429566 | ||
| PMAF1_TS_DEWT_032006.nc | 27-Oct-2024 18:03 | 429565 | ||
| PMAF1_TS_DEWT_032007.nc | 27-Oct-2024 18:03 | 429569 | ||
| PMAF1_TS_DEWT_032008.nc | 27-Oct-2024 18:03 | 429546 | ||
| PMAF1_TS_DEWT_032013.nc | 27-Oct-2024 18:03 | 429569 | ||
| PMAF1_TS_DEWT_032014.nc | 27-Oct-2024 18:03 | 1111146 | ||
| PMAF1_TS_DEWT_032015.nc | 27-Oct-2024 18:03 | 1105951 | ||
| PMAF1_TS_DEWT_032016.nc | 27-Oct-2024 18:03 | 1109188 | ||
| PMAF1_TS_DEWT_032017.nc | 27-Oct-2024 18:04 | 1112581 | ||
| PMAF1_TS_DEWT_032018.nc | 27-Oct-2024 18:04 | 1110105 | ||
| PMAF1_TS_DEWT_032019.nc | 27-Oct-2024 18:04 | 5783111 | ||
| PMAF1_TS_DEWT_032020.nc | 27-Oct-2024 18:04 | 5472880 | ||
| PMAF1_TS_DEWT_032021.nc | 27-Oct-2024 18:04 | 429684 | ||
| PMAF1_TS_DEWT_032022.nc | 27-Oct-2024 18:04 | 429908 | ||
| PMAF1_TS_DEWT_032023.nc | 27-Oct-2024 18:04 | 429906 | ||
| PMAF1_TS_DEWT_042006.nc | 27-Oct-2024 18:04 | 429912 | ||
| PMAF1_TS_DEWT_042007.nc | 27-Oct-2024 18:04 | 429907 | ||
| PMAF1_TS_DEWT_042008.nc | 27-Oct-2024 18:04 | 420445 | ||
| PMAF1_TS_DEWT_042009.nc | 27-Oct-2024 18:04 | 429909 | ||
| PMAF1_TS_DEWT_042013.nc | 27-Oct-2024 18:04 | 429911 | ||
| PMAF1_TS_DEWT_042014.nc | 27-Oct-2024 18:04 | 429906 | ||
| PMAF1_TS_DEWT_042015.nc | 27-Oct-2024 18:04 | 429908 | ||
| PMAF1_TS_DEWT_042017.nc | 27-Oct-2024 18:04 | 429906 | ||
| PMAF1_TS_DEWT_042018.nc | 27-Oct-2024 18:05 | 429906 | ||
| PMAF1_TS_DEWT_042019.nc | 27-Oct-2024 18:05 | 429950 | ||
| PMAF1_TS_DEWT_042020.nc | 27-Oct-2024 18:05 | 429903 | ||
| PMAF1_TS_DEWT_042021.nc | 27-Oct-2024 18:05 | 429660 | ||
| PMAF1_TS_DEWT_042022.nc | 27-Oct-2024 18:05 | 1262641 | ||
| PMAF1_TS_DEWT_042023.nc | 27-Oct-2024 18:05 | 1263973 | ||
| PMAF1_TS_DEWT_052006.nc | 27-Oct-2024 18:05 | 1264584 | ||
| PMAF1_TS_DEWT_052007.nc | 27-Oct-2024 18:05 | 1260609 | ||
| PMAF1_TS_DEWT_052008.nc | 27-Oct-2024 18:05 | 1259977 | ||
| PMAF1_TS_DEWT_052009.nc | 27-Oct-2024 18:05 | 5290945 | ||
| PMAF1_TS_DEWT_052013.nc | 27-Oct-2024 18:05 | 5661362 | ||
| PMAF1_TS_DEWT_052014.nc | 27-Oct-2024 18:05 | 481360 | ||
| PMAF1_TS_DEWT_052015.nc | 27-Oct-2024 18:05 | 430154 | ||
| PMAF1_TS_DEWT_052016.nc | 27-Oct-2024 18:05 | 629549 | ||
| PMAF1_TS_DEWT_052017.nc | 27-Oct-2024 18:05 | 630824 | ||
| PMAF1_TS_DEWT_052018.nc | 27-Oct-2024 18:05 | 587178 | ||
| PMAF1_TS_DEWT_052019.nc | 27-Oct-2024 18:06 | 483025 | ||
| PMAF1_TS_DEWT_052020.nc | 27-Oct-2024 18:06 | 628949 | ||
| PMAF1_TS_DEWT_052021.nc | 27-Oct-2024 18:06 | 626178 | ||
| PMAF1_TS_DEWT_052022.nc | 27-Oct-2024 18:06 | 604841 | ||
| PMAF1_TS_DEWT_062006.nc | 27-Oct-2024 18:06 | 629438 | ||
| PMAF1_TS_DEWT_062007.nc | 27-Oct-2024 18:06 | 627342 | ||
| PMAF1_TS_DEWT_062008.nc | 27-Oct-2024 18:06 | 629796 | ||
| PMAF1_TS_DEWT_062009.nc | 27-Oct-2024 18:06 | 628352 | ||
| PMAF1_TS_DEWT_062013.nc | 27-Oct-2024 18:06 | 1264362 | ||
| PMAF1_TS_DEWT_062014.nc | 27-Oct-2024 18:06 | 4963541 | ||
| PMAF1_TS_DEWT_062015.nc | 27-Oct-2024 18:06 | 3293949 | ||
| PMAF1_TS_DEWT_062016.nc | 27-Oct-2024 18:06 | 476675 | ||
| PMAF1_TS_DEWT_062017.nc | 27-Oct-2024 18:06 | 436461 | ||
| PMAF1_TS_DEWT_062018.nc | 27-Oct-2024 18:06 | 475895 | ||
| PMAF1_TS_DEWT_062019.nc | 27-Oct-2024 18:06 | 479704 | ||
| PMAF1_TS_DEWT_062020.nc | 27-Oct-2024 18:06 | 438690 | ||
| PMAF1_TS_DEWT_062021.nc | 27-Oct-2024 18:07 | 478081 | ||
| PMAF1_TS_DEWT_062022.nc | 27-Oct-2024 18:07 | 472724 | ||
| PMAF1_TS_DEWT_062023.nc | 27-Oct-2024 18:07 | 477096 | ||
| PMAF1_TS_DEWT_072006.nc | 27-Oct-2024 18:07 | 438863 | ||
| PMAF1_TS_DEWT_072007.nc | 27-Oct-2024 18:07 | 476874 | ||
| PMAF1_TS_DEWT_072008.nc | 27-Oct-2024 18:07 | 477171 | ||
| PMAF1_TS_DEWT_072009.nc | 27-Oct-2024 18:07 | 475360 | ||
| PMAF1_TS_DEWT_072013.nc | 27-Oct-2024 18:07 | 475723 | ||
| PMAF1_TS_DEWT_072014.nc | 27-Oct-2024 18:07 | 478857 | ||
| PMAF1_TS_DEWT_072015.nc | 27-Oct-2024 18:07 | 1029239 | ||
| PMAF1_TS_DEWT_072017.nc | 27-Oct-2024 18:08 | 4914680 | ||
| PMAF1_TS_DEWT_072018.nc | 27-Oct-2024 18:08 | 628320 | ||
| PMAF1_TS_DEWT_072019.nc | 27-Oct-2024 18:08 | 421007 | ||
| PMAF1_TS_DEWT_072020.nc | 27-Oct-2024 18:08 | 473715 | ||
| PMAF1_TS_DEWT_072021.nc | 27-Oct-2024 18:08 | 628988 | ||
| PMAF1_TS_DEWT_072022.nc | 27-Oct-2024 18:08 | 615151 | ||
| PMAF1_TS_DEWT_072023.nc | 27-Oct-2024 18:08 | 628746 | ||
| PMAF1_TS_DEWT_082006.nc | 27-Oct-2024 18:08 | 474275 | ||
| PMAF1_TS_DEWT_082007.nc | 27-Oct-2024 18:08 | 629617 | ||
| PMAF1_TS_DEWT_082009.nc | 27-Oct-2024 18:08 | 628287 | ||
| PMAF1_TS_DEWT_082013.nc | 27-Oct-2024 18:08 | 628166 | ||
| PMAF1_TS_DEWT_082014.nc | 27-Oct-2024 18:08 | 627662 | ||
| PMAF1_TS_DEWT_082015.nc | 27-Oct-2024 18:08 | 629326 | ||
| PMAF1_TS_DEWT_082016.nc | 27-Oct-2024 18:08 | 628177 | ||
| PMAF1_TS_DEWT_082017.nc | 27-Oct-2024 18:09 | 1266053 | ||
| PMAF1_TS_DEWT_082018.nc | 27-Oct-2024 18:09 | 4142147 | ||
| PMAF1_TS_DEWT_082019.nc | 27-Oct-2024 18:09 | 3825199 | ||
| PMAF1_TS_DEWT_082020.nc | 27-Oct-2024 18:09 | 478909 | ||
| PMAF1_TS_DEWT_082022.nc | 27-Oct-2024 18:09 | 481083 | ||
| PMAF1_TS_DEWT_082023.nc | 27-Oct-2024 18:09 | 481635 | ||
| PMAF1_TS_DEWT_092006.nc | 27-Oct-2024 18:09 | 481083 | ||
| PMAF1_TS_DEWT_092007.nc | 27-Oct-2024 18:09 | 455956 | ||
| PMAF1_TS_DEWT_092008.nc | 27-Oct-2024 18:09 | 466725 | ||
| PMAF1_TS_DEWT_092009.nc | 27-Oct-2024 18:09 | 478467 | ||
| PMAF1_TS_DEWT_092012.nc | 27-Oct-2024 18:09 | 440175 | ||
| PMAF1_TS_DEWT_092013.nc | 27-Oct-2024 18:09 | 478474 | ||
| PMAF1_TS_DEWT_092014.nc | 27-Oct-2024 18:10 | 476642 | ||
| PMAF1_TS_DEWT_092015.nc | 27-Oct-2024 18:10 | 480736 | ||
| PMAF1_TS_DEWT_092016.nc | 27-Oct-2024 18:10 | 479462 | ||
| PMAF1_TS_DEWT_092017.nc | 27-Oct-2024 18:10 | 441627 | ||
| PMAF1_TS_DEWT_092018.nc | 27-Oct-2024 18:10 | 1113570 | ||
| PMAF1_TS_DEWT_092019.nc | 27-Oct-2024 18:10 | 4850557 | ||
| PMAF1_TS_DEWT_092020.nc | 27-Oct-2024 18:10 | 628006 | ||
| PMAF1_TS_DEWT_092021.nc | 27-Oct-2024 18:10 | 629628 | ||
| PMAF1_TS_DEWT_092023.nc | 27-Oct-2024 18:10 | 627847 | ||
| PMAF1_TS_DEWT_102006.nc | 27-Oct-2024 18:10 | 624811 | ||
| PMAF1_TS_DEWT_102007.nc | 27-Oct-2024 18:10 | 630068 | ||
| PMAF1_TS_DEWT_102008.nc | 27-Oct-2024 18:10 | 434016 | ||
| PMAF1_TS_DEWT_102009.nc | 27-Oct-2024 18:10 | 627130 | ||
| PMAF1_TS_DEWT_102012.nc | 27-Oct-2024 18:10 | 600687 | ||
| PMAF1_TS_DEWT_102013.nc | 27-Oct-2024 18:11 | 627193 | ||
| PMAF1_TS_DEWT_102014.nc | 27-Oct-2024 18:11 | 440044 | ||
| PMAF1_TS_DEWT_102015.nc | 27-Oct-2024 18:11 | 626117 | ||
| PMAF1_TS_DEWT_102016.nc | 27-Oct-2024 18:11 | 626613 | ||
| PMAF1_TS_DEWT_102017.nc | 27-Oct-2024 18:11 | 587242 | ||
| PMAF1_TS_DEWT_102018.nc | 27-Oct-2024 18:11 | 1263775 | ||
| PMAF1_TS_DEWT_102019.nc | 27-Oct-2024 18:11 | 5547159 | ||
| PMAF1_TS_DEWT_102020.nc | 27-Oct-2024 18:11 | 478044 | ||
| PMAF1_TS_DEWT_102021.nc | 27-Oct-2024 18:11 | 477586 | ||
| PMAF1_TS_DEWT_102022.nc | 27-Oct-2024 18:11 | 475475 | ||
| PMAF1_TS_DEWT_102023.nc | 27-Oct-2024 18:11 | 475345 | ||
| PMAF1_TS_DEWT_112006.nc | 27-Oct-2024 18:11 | 440151 | ||
| PMAF1_TS_DEWT_112008.nc | 27-Oct-2024 18:12 | 418896 | ||
| PMAF1_TS_DEWT_112009.nc | 27-Oct-2024 18:12 | 422808 | ||
| PMAF1_TS_DEWT_112012.nc | 27-Oct-2024 18:12 | 477855 | ||
| PMAF1_TS_DEWT_112013.nc | 27-Oct-2024 18:12 | 479211 | ||
| PMAF1_TS_DEWT_112014.nc | 27-Oct-2024 18:12 | 478951 | ||
| PMAF1_TS_DEWT_112015.nc | 27-Oct-2024 18:12 | 460194 | ||
| PMAF1_TS_DEWT_112016.nc | 27-Oct-2024 18:12 | 478829 | ||
| PMAF1_TS_DEWT_112017.nc | 27-Oct-2024 18:12 | 475230 | ||
| PMAF1_TS_DEWT_112018.nc | 27-Oct-2024 18:12 | 440146 | ||
| PMAF1_TS_DEWT_112019.nc | 27-Oct-2024 18:12 | 1106690 | ||
| PMAF1_TS_DEWT_112020.nc | 27-Oct-2024 18:12 | 5257678 | ||
| PMAF1_TS_DEWT_112021.nc | 27-Oct-2024 18:13 | 441411 | ||
| PMAF1_TS_DEWT_112022.nc | 27-Oct-2024 18:13 | 626557 | ||
| PMAF1_TS_DEWT_112023.nc | 27-Oct-2024 18:13 | 627596 | ||
| PMAF1_TS_DEWT_122006.nc | 27-Oct-2024 18:13 | 628717 | ||
| PMAF1_TS_DEWT_122007.nc | 27-Oct-2024 18:13 | 479567 | ||
| PMAF1_TS_DEWT_122008.nc | 27-Oct-2024 18:13 | 587185 | ||
| PMAF1_TS_DEWT_122009.nc | 27-Oct-2024 18:13 | 625988 | ||
| PMAF1_TS_DEWT_122012.nc | 27-Oct-2024 18:13 | 599242 | ||
| PMAF1_TS_DEWT_122013.nc | 27-Oct-2024 18:13 | 425004 | ||
| PMAF1_TS_DEWT_122014.nc | 27-Oct-2024 18:13 | 626430 | ||
| PMAF1_TS_DEWT_122015.nc | 27-Oct-2024 18:13 | 626070 | ||
| PMAF1_TS_DEWT_122016.nc | 27-Oct-2024 18:13 | 629981 | ||
| PMAF1_TS_DEWT_122017.nc | 27-Oct-2024 18:13 | 626167 | ||
| PMAF1_TS_DEWT_122018.nc | 27-Oct-2024 18:13 | 626730 | ||
| PMAF1_TS_DEWT_122019.nc | 27-Oct-2024 18:13 | 627084 | ||
| PMAF1_TS_DEWT_122020.nc | 27-Oct-2024 18:14 | 439646 | ||
| PMAF1_TS_DEWT_122021.nc | 27-Oct-2024 18:14 | 1258918 | ||
| PMAF1_TS_DEWT_122022.nc | 27-Oct-2024 18:14 | 4909905 | ||
| PMAF1_TS_DEWT_122023.nc | 27-Oct-2024 18:14 | 450201 | ||